[[{"header":{"parameterUnit":"m.s-1","parameterCategory":2,"la1":30.2991,"la2":30.254,"lo1":-89.0895,"lo2":-89.0444,"dy":0.0017,"dx":0.0017,"nx":28,"ny":28,"refTime":"2025-03-22T03:00:00:Z","depth":"0","parameterNumber":2,"parameterNumberName":"U-component_of_CURRENTS"},"data":[0,0,0,0,0,0,0,0,0,0,0,0,0,0,0,0,0,0,0,0,0,0,0,0,0,0,0,0,0,0,0,0,0,0,0,0,0,0,0,0,0,0,0,0,0,0,0,0,0,0,0,0,0,0,0,0,0,0,0.1267,0.1268,0,0.1283,0.1283,0.1283,0.1272,0.1271,0.1271,0.127,0.1234,0.1234,0.1233,0,0,0,0,0,0,0,0,0,0,0,0,0,0.1197,0.1199,0.1267,0.1268,0.1268,0.1283,0.1283,0.1283,0.1272,0.1271,0.1271,0.127,0.1234,0.1234,0.1233,0,0,0,0,0,0,0,0,0,0,0,0,0,0.122,0.1199,0.1267,0.1265,0.1265,0.1283,0.1283,0.1283,0.1272,0.1271,0.1271,0.127,0.1235,0.1234,0.1233,0.1238,0,0,0.123,0.1229,0,0,0,0,0,0,0,0,0.1219,0.1223,0.1265,0.1265,0.1266,0.1276,0.1245,0.1266,0.1272,0.1268,0.127,0.127,0.1245,0.1243,0.1246,0.1236,0.1235,0.123,0.1229,0.1229,0.1229,0,0,0,0,0,0,0,0.1217,0.1222,0.1272,0.1266,0.1266,0.1253,0.1256,0.1249,0.1257,0.1268,0.1268,0.1272,0.1244,0.1247,0.1245,0.1234,0.123,0.1229,0.1228,0.1228,0.121,0.121,0,0,0,0,0,0,0.1221,0.1221,0.1272,0.1273,0.1242,0.1255,0.1258,0.1272,0.1258,0.1256,0.1272,0.1271,0.1249,0.1246,0.1243,0.1247,0.1229,0.1228,0.1227,0.121,0.121,0.121,0,0,0,0,0,0,0.122,0.1226,0.1271,0.1247,0.1252,0.1257,0.1273,0.1273,0.1272,0.1262,0.1259,0.1272,0.1248,0.1245,0.1237,0.1245,0.1228,0.1227,0.121,0.121,0.121,0.1255,0,0,0,0,0,0,0.1218,0.1226,0.1237,0.1248,0.1254,0.1284,0.1273,0.1273,0.1277,0.1275,0.1261,0.1257,0.1247,0.1239,0.1236,0.1244,0.1226,0.121,0.121,0.121,0.1253,0.1257,0.1259,0,0,0,0,0,0.1215,0.124,0.1237,0.1243,0.127,0.1284,0.1286,0.1286,0.1277,0.1282,0.127,0.1258,0.1238,0.1239,0.1236,0.1243,0.121,0.121,0.121,0.1252,0.1256,0.1259,0,0,0,0,0,0,0.1218,0.1242,0.1239,0.127,0.1275,0.1283,0.1293,0.1287,0.1283,0.1279,0.1262,0.1258,0.1253,0.124,0.1241,0.1236,0.122,0.122,0.1253,0.1257,0.126,0.1318,0.1225,0,0,0,0,0,0.1223,0.1247,0.1258,0.1281,0.1285,0.1286,0.1291,0.129,0.1289,0.1287,0.1273,0.126,0.1253,0.1249,0.1237,0.1239,0.1322,0.1239,0.1242,0.1245,0.1289,0.1444,0.1468,0.1211,0.1211,0.1211,0,0,0.1232,0.1247,0.1261,0.1283,0.1287,0.1291,0.1288,0.13,0.1298,0.1283,0.1275,0.1268,0.1254,0.1254,0.1251,0.1245,0.1355,0.1245,0.1248,0.1292,0.1447,0.1473,0.1497,0.1211,0.1211,0.1211,0,0,0.1258,0.1272,0.1296,0.1298,0.1308,0.1303,0.1305,0.1308,0.1306,0.13,0.129,0.1309,0.127,0.1291,0.1288,0.1305,0.1364,0.1272,0.1341,0.149,0.1515,0.1537,0.1662,0.1696,0.1277,0.1277,0.1277,0,0.1263,0.1295,0.1303,0.1315,0.1318,0.1306,0.1316,0.1311,0.1308,0.1331,0.1297,0.1326,0.1301,0.1354,0.1348,0.1318,0.1408,0.1328,0.1502,0.1526,0.1548,0.1671,0.1708,0.1279,0.1279,0.1279,0.1279,0,0.1305,0.1317,0.133,0.1337,0.1338,0.1349,0.1338,0.1342,0.1329,0.1343,0.1388,0.1384,0.1419,0.1395,0.137,0.1499,0.1513,0.149,0.1507,0.1579,0.1701,0.1739,0.1283,0.1282,0.1281,0.1281,0,0,0.135,0.1357,0.1361,0.1355,0.1351,0.1354,0.1359,0.1384,0.1429,0.1422,0.1508,0.1489,0.1525,0.1528,0.1519,0.1634,0.1838,0.163,0.1637,0.1781,0.2179,0.2065,0.2095,0.186,0.1867,0.1872,0.2197,0,0.1377,0.1395,0.1397,0.1397,0.1397,0.1391,0.1404,0.1424,0.1455,0.1532,0.1571,0.1635,0.156,0.1606,0.1704,0.181,0.1942,0.1753,0.2066,0.2076,0.199,0.2137,0.2057,0.233,0.2234,0.224,0.2245,0,0.1426,0.1422,0.1433,0.1428,0.1433,0.143,0.1481,0.1497,0.1598,0.1644,0.1738,0.1779,0.1918,0.1856,0.2117,0.2005,0.2107,0.219,0.2204,0.2121,0.2034,0.2243,0.2402,0.2289,0.2303,0.2299,0.2294,0,0.1453,0.1453,0.1458,0.1453,0.1447,0.146,0.1463,0.1539,0.1599,0.1751,0.1847,0.1989,0.2092,0.2252,0.2335,0.2282,0.2639,0.2588,0.2594,0.2587,0.2594,0.2573,0.2709,0.2833,0.2833,0.2832,0.2831,0,0.1486,0.1487,0.1466,0.1461,0.1479,0.1475,0.1547,0.1585,0.1714,0.1831,0.1913,0.2057,0.2208,0.2376,0.2457,0.2626,0.2739,0.2672,0.269,0.2596,0.2573,0.2528,0.2469,0.2844,0.2841,0.2839,0.2837,0,0.1513,0.1507,0.1498,0.1485,0.1489,0.1496,0.1562,0.1648,0.175,0.1925,0.199,0.2182,0.24,0.2511,0.279,0.278,0.2887,0.2976,0.2824,0.2816,0.2677,0.2623,0.2764,0.2727,0.3103,0.3103,0.3102,0,0.1529,0.153,0.1508,0.1526,0.1517,0.1542,0.1597,0.1664,0.1766,0.1996,0.21,0.2339,0.2488,0.2794,0.2867,0.3029,0.2923,0.3022,0.2893,0.2712,0.2671,0.2547,0.2497,0.294,0.2939,0.2937,0.2936,0,0.1557,0.1549,0.1551,0.1582,0.1613,0.1645,0.1711,0.1775,0.19,0.2035,0.2249,0.2388,0.2641,0.2757,0.2887,0.2967,0.2867,0.2995,0.2902,0.2647,0.2443,0.2397,0.2653,0.2924,0.2925,0.2926,0.2927,0.2927,0.1598,0.1604,0.1636,0.1663,0.1697,0.1744,0.1765,0.1857,0.1974,0.2128,0.2289,0.2426,0.2592,0.277,0.2839,0.2814,0.2806,0.2745,0.2735,0.2654,0.249,0.2674,0.2868,0.2869,0.287,0.2871,0.2871,0,0.1669,0.1691,0.1732,0.1755,0.1791,0.1796,0.186,0.1878,0.1964,0.2089,0.2227,0.2353,0.2456,0.2569,0.2634,0.2567,0.2503,0.2481,0.2329,0.2327,0.261,0.2462,0.246,0.246,0.246,0.246,0.246,0.246,0.1722,0.1785,0.1798,0.1856,0.1862,0.1877,0.1886,0.1895,0.1933,0.1989,0.2021,0.2111,0.2254,0.2394,0.2385,0.2347,0.2206,0.2085,0.209,0.2279,0.2301,0.2323,0.217,0.2106,0.2105,0.1742,0.174,0.1737]},{"header":{"parameterUnit":"m.s-1","parameterCategory":2,"la1":30.2991,"la2":30.254,"lo1":-89.0895,"lo2":-89.0444,"dy":0.0017,"dx":0.0017,"nx":28,"ny":28,"refTime":"2025-03-22T03:00:00:Z","depth":"0","parameterNumber":3,"parameterNumberName":"V-component_of_CURRENTS"},"data":[0,0,0,0,0,0,0,0,0,0,0,0,0,0,0,0,0,0,0,0,0,0,0,0,0,0,0,0,0,0,0,0,0,0,0,0,0,0,0,0,0,0,0,0,0,0,0,0,0,0,0,0,0,0,0,0,0,0,-0.001,-0.001,0,-0.0046,-0.0047,-0.0047,-0.0069,-0.0069,-0.0069,-0.0069,-0.0116,-0.0118,-0.0119,0,0,0,0,0,0,0,0,0,0,0,0,0,0.0037,0.0036,-0.001,-0.001,-0.0011,-0.0046,-0.0047,-0.0047,-0.0069,-0.0069,-0.0069,-0.0069,-0.0116,-0.0117,-0.0119,0,0,0,0,0,0,0,0,0,0,0,0,0,0.001,0.0036,-0.001,-0.0026,-0.0028,-0.0046,-0.0047,-0.0048,-0.0069,-0.0069,-0.0069,-0.0069,-0.0116,-0.0117,-0.0119,-0.0127,0,0,-0.0124,-0.0125,0,0,0,0,0,0,0,0,0.0012,0.0008,-0.0023,-0.0025,-0.0027,-0.0053,-0.0048,-0.0075,-0.0069,-0.0053,-0.0069,-0.0069,-0.0096,-0.01,-0.0106,-0.0129,-0.0131,-0.0124,-0.0126,-0.0126,-0.0127,0,0,0,0,0,0,0,0.0014,0.001,-0.0024,-0.0023,-0.0026,-0.0033,-0.0037,-0.0053,-0.0074,-0.0055,-0.0056,-0.006,-0.0097,-0.0104,-0.0107,-0.0132,-0.0124,-0.0126,-0.0127,-0.0128,-0.0167,-0.0167,0,0,0,0,0,0,0.0018,0.0012,-0.0023,-0.0025,-0.0008,-0.0034,-0.0038,-0.0045,-0.0073,-0.0078,-0.006,-0.0061,-0.0101,-0.0105,-0.0109,-0.0119,-0.0126,-0.0128,-0.0129,-0.0167,-0.0167,-0.0167,0,0,0,0,0,0,0.0019,0.0015,-0.0022,-0.0007,-0.0013,-0.0034,-0.0042,-0.0045,-0.0053,-0.0077,-0.0082,-0.0064,-0.0101,-0.0107,-0.0125,-0.0121,-0.0129,-0.013,-0.0167,-0.0167,-0.0167,-0.014,0,0,0,0,0,0,0.0021,0.0016,0.0013,-0.0007,-0.0013,-0.004,-0.0042,-0.0046,-0.0055,-0.0057,-0.0082,-0.0087,-0.0102,-0.0122,-0.0127,-0.0124,-0.0132,-0.0167,-0.0167,-0.0167,-0.0141,-0.0139,-0.0137,0,0,0,0,0,0.0023,0.0013,0.0013,0.0009,-0.0017,-0.004,-0.0044,-0.0059,-0.0055,-0.0065,-0.0077,-0.0086,-0.0125,-0.0124,-0.0129,-0.0126,-0.0167,-0.0167,-0.0167,-0.0141,-0.0139,-0.0137,0,0,0,0,0,0,0.0033,0.0009,0.0009,-0.0006,-0.0022,-0.0044,-0.0056,-0.0057,-0.0073,-0.0075,-0.0089,-0.0095,-0.0112,-0.0122,-0.012,-0.0137,-0.0146,-0.0147,-0.0125,-0.0123,-0.0122,-0.0045,-0.0133,0,0,0,0,0,0.0036,0.0019,0.0002,-0.0011,-0.0019,-0.0033,-0.0043,-0.0052,-0.0068,-0.0075,-0.009,-0.0104,-0.0115,-0.0122,-0.0141,-0.0149,-0.0107,-0.015,-0.0148,-0.0147,-0.0088,-0.0013,0.0002,-0.0167,-0.0167,-0.0167,0,0,0.0035,0.0021,0.0012,-0.001,-0.0023,-0.0037,-0.004,-0.0059,-0.0058,-0.0078,-0.0086,-0.0104,-0.0118,-0.013,-0.0137,-0.0137,-0.0089,-0.0147,-0.0145,-0.0086,-0.0011,0.0006,0.0021,-0.0167,-0.0167,-0.0167,0,0,0.002,0.0015,-0.0007,-0.0018,-0.0038,-0.0043,-0.0046,-0.0067,-0.0065,-0.0083,-0.0086,-0.0077,-0.0128,-0.0104,-0.0106,-0.01,-0.0087,-0.0136,-0.0058,0.0012,0.0028,0.0043,0.0073,0.0091,-0.0129,-0.0129,-0.0128,0,0.0021,0.0004,-0.0015,-0.0035,-0.0029,-0.0043,-0.0046,-0.0054,-0.0075,-0.0029,-0.0088,-0.006,-0.0098,-0.0034,-0.0051,-0.0089,-0.0063,-0.0068,0.002,0.0035,0.005,0.0078,0.0097,-0.0127,-0.0127,-0.0128,-0.0128,0,-0.0012,-0.0015,-0.0028,-0.0047,-0.0049,-0.0055,-0.0058,-0.0042,-0.0044,-0.0022,0.0028,-0.0009,0.0035,-0.0005,-0.0039,0.0053,0.0029,0.0008,0.0024,0.007,0.0094,0.0114,-0.0125,-0.0126,-0.0126,-0.0127,0,0,-0.0028,-0.0044,-0.0047,-0.0021,-0.0043,-0.0031,-0.0017,0.0039,0.0128,0.0082,0.0198,0.0145,0.0173,0.0177,0.0149,0.0192,0.0263,0.014,0.0143,0.0188,0.0397,0.0335,0.0349,0.0254,0.0259,0.0262,0.0356,0,-0.0038,-0.0043,-0.0055,-0.0027,-0.0012,0.0011,0.0054,0.0109,0.0156,0.0257,0.0269,0.0338,0.0226,0.0263,0.0284,0.0289,0.0324,0.024,0.0334,0.0337,0.0292,0.0375,0.0328,0.0405,0.0375,0.0378,0.0381,0,-0.0054,-0.0047,-0.0025,0.0058,0.0071,0.0088,0.0236,0.0271,0.0406,0.0458,0.054,0.0554,0.0619,0.0507,0.0562,0.0509,0.0467,0.0448,0.0451,0.0419,0.0315,0.0362,0.0442,0.0264,0.0411,0.0409,0.0406,0,-0.001,-0.0001,0.004,0.005,0.011,0.0167,0.0218,0.0349,0.0467,0.0615,0.0734,0.0785,0.0849,0.0814,0.0716,0.0665,0.0767,0.0695,0.0606,0.0598,0.0599,0.0585,0.0549,0.0763,0.0763,0.0763,0.0763,0,0.0019,0.006,0.007,0.0098,0.0205,0.0226,0.0396,0.0474,0.065,0.0847,0.085,0.1011,0.0935,0.0957,0.0829,0.0779,0.0855,0.0672,0.0649,0.0595,0.0581,0.0456,0.0369,0.0766,0.0766,0.0765,0.0764,0,0.0084,0.0078,0.014,0.0196,0.0229,0.0311,0.0492,0.0657,0.0783,0.1039,0.1101,0.1228,0.1247,0.1127,0.1093,0.0958,0.0802,0.084,0.0753,0.0719,0.0463,0.0379,0.0423,0.0363,0.0803,0.0803,0.0802,0,0.013,0.0155,0.0212,0.0284,0.0315,0.0441,0.0578,0.0713,0.0905,0.1185,0.1339,0.1426,0.1514,0.1404,0.1158,0.0958,0.0802,0.0809,0.0712,0.0491,0.0382,0.0335,0.0278,0.0701,0.0699,0.0698,0.0698,0,0.0239,0.0243,0.0302,0.0427,0.0548,0.0699,0.0885,0.1035,0.1246,0.1443,0.1704,0.1783,0.1659,0.1459,0.1153,0.0995,0.0688,0.0783,0.0611,0.0371,0.0273,0.0188,0.0555,0.0689,0.069,0.069,0.0691,0.0691,0.0349,0.041,0.0499,0.0622,0.0764,0.0967,0.1107,0.1316,0.1576,0.1856,0.1932,0.2028,0.1673,0.1249,0.1052,0.0576,0.0615,0.0428,0.0367,0.0356,0.0246,0.0571,0.0632,0.0632,0.0633,0.0633,0.0633,0,0.0524,0.0593,0.0717,0.0875,0.1045,0.1084,0.1351,0.1497,0.1759,0.1947,0.2124,0.1927,0.1524,0.1084,0.0464,0.0203,0.0119,0.004,-0.0044,-0.0065,0.0275,0.0209,0.0113,0.0114,0.0114,0.0114,0.0114,0.0114,0.0642,0.0792,0.0835,0.1114,0.1219,0.1449,0.1579,0.1766,0.1912,0.2065,0.2048,0.2047,0.1598,0.057,-0.0079,-0.0205,-0.039,-0.0429,-0.0494,-0.032,-0.0289,-0.0261,-0.0344,-0.0555,-0.0555,-0.082,-0.0824,-0.0826]}],[{"header":{"parameterUnit":"m.s-1","parameterCategory":2,"la1":30.2991,"la2":30.254,"lo1":-89.0895,"lo2":-89.0444,"dy":0.0017,"dx":0.0017,"nx":28,"ny":28,"refTime":"2025-03-22T03:00:00:Z","depth":"2","parameterNumber":2,"parameterNumberName":"U-component_of_CURRENTS"},"data":[0,0,0,0,0,0,0,0,0,0,0,0,0,0,0,0,0,0,0,0,0,0,0,0,0,0,0,0,0,0,0,0,0,0,0,0,0,0,0,0,0,0,0,0,0,0,0,0,0,0,0,0,0,0,0,0,0,0,0.1162,0.1162,0,0.119,0.1191,0.1191,0.1195,0.1195,0.1194,0.1194,0.1164,0.1164,0.1163,0,0,0,0,0,0,0,0,0,0,0,0,0,0.11,0.1101,0.1162,0.1162,0.1163,0.119,0.1191,0.1191,0.1195,0.1195,0.1194,0.1194,0.1165,0.1164,0.1163,0,0,0,0,0,0,0,0,0,0,0,0,0,0.1127,0.1101,0.1162,0.1169,0.117,0.119,0.1191,0.1191,0.1195,0.1195,0.1194,0.1194,0.1165,0.1164,0.1163,0.1163,0,0,0.116,0.116,0,0,0,0,0,0,0,0,0.1125,0.1129,0.1167,0.1168,0.1169,0.119,0.1158,0.1179,0.1195,0.1184,0.1194,0.1194,0.1168,0.1167,0.1173,0.1162,0.116,0.116,0.116,0.1159,0.1159,0,0,0,0,0,0,0,0.1123,0.1127,0.1172,0.1168,0.1169,0.1167,0.117,0.1162,0.1176,0.1185,0.1186,0.119,0.1168,0.1173,0.1172,0.116,0.116,0.1159,0.1159,0.1158,0.1138,0.1138,0,0,0,0,0,0,0.1123,0.1126,0.1171,0.1173,0.1147,0.1168,0.1172,0.1183,0.1177,0.1177,0.1191,0.1191,0.1175,0.1173,0.1171,0.1177,0.1159,0.1158,0.1158,0.1138,0.1138,0.1138,0,0,0,0,0,0,0.1121,0.1127,0.117,0.115,0.1156,0.117,0.1181,0.1183,0.119,0.1182,0.118,0.1196,0.1175,0.1172,0.1167,0.1175,0.1158,0.1157,0.1138,0.1138,0.1138,0.1185,0,0,0,0,0,0,0.1119,0.1126,0.1138,0.1151,0.1157,0.1186,0.1182,0.1184,0.1194,0.1194,0.1186,0.1183,0.1174,0.1169,0.1167,0.1174,0.1156,0.1138,0.1138,0.1138,0.1183,0.1187,0.1189,0,0,0,0,0,0.1117,0.1137,0.1139,0.1144,0.1172,0.1186,0.1189,0.1197,0.1194,0.1201,0.1195,0.1183,0.1167,0.1169,0.1166,0.1173,0.1138,0.1138,0.1138,0.1182,0.1186,0.1189,0,0,0,0,0,0,0.1116,0.114,0.1142,0.1167,0.1176,0.1187,0.1199,0.1199,0.1201,0.1201,0.1188,0.1185,0.1182,0.1168,0.117,0.1165,0.1149,0.1148,0.1183,0.1187,0.119,0.1242,0.1156,0,0,0,0,0,0.1121,0.1144,0.1156,0.1177,0.1182,0.1189,0.1197,0.1201,0.1204,0.1205,0.1197,0.1187,0.1181,0.1177,0.1167,0.1167,0.1226,0.1167,0.117,0.1173,0.1212,0.1338,0.1358,0.1138,0.1138,0.1138,0,0,0.1128,0.1144,0.1157,0.1178,0.1186,0.1194,0.1193,0.1209,0.1212,0.12,0.1202,0.1197,0.1182,0.1184,0.1181,0.1174,0.1255,0.1173,0.1176,0.1215,0.134,0.1363,0.1382,0.1138,0.1138,0.1138,0,0,0.1145,0.1164,0.1182,0.1194,0.1208,0.1207,0.1211,0.122,0.1221,0.1222,0.1216,0.1233,0.1202,0.1218,0.1214,0.1229,0.1267,0.1201,0.1264,0.1384,0.1405,0.1424,0.1493,0.1518,0.1204,0.1204,0.1204,0,0.1149,0.1181,0.1189,0.1206,0.1218,0.1211,0.1225,0.1224,0.1229,0.125,0.1224,0.1253,0.1229,0.1273,0.127,0.1242,0.1304,0.1252,0.1395,0.1415,0.1434,0.15,0.1528,0.1206,0.1206,0.1206,0.1206,0,0.1177,0.1204,0.1216,0.1233,0.1238,0.1258,0.1251,0.1257,0.1251,0.1269,0.1311,0.1305,0.1339,0.1315,0.1292,0.1401,0.1397,0.1388,0.1399,0.146,0.1524,0.1552,0.121,0.1209,0.1208,0.1208,0,0,0.1199,0.1229,0.1242,0.1249,0.1262,0.1266,0.1273,0.1299,0.1342,0.134,0.1419,0.1402,0.1438,0.1439,0.1428,0.1517,0.1671,0.1512,0.1517,0.1603,0.1924,0.1736,0.1748,0.1703,0.1709,0.1714,0.1903,0,0.1225,0.1261,0.127,0.1294,0.1306,0.1308,0.1322,0.1343,0.1373,0.1444,0.1473,0.1534,0.147,0.1512,0.159,0.1662,0.1753,0.1619,0.1832,0.1838,0.1685,0.1778,0.1596,0.1735,0.1931,0.1935,0.1939,0,0.1261,0.1281,0.1314,0.1335,0.1343,0.1347,0.1398,0.1417,0.1508,0.1551,0.1635,0.1671,0.1779,0.1729,0.1914,0.1838,0.1895,0.1943,0.1952,0.1793,0.1704,0.1709,0.1778,0.1985,0.1982,0.1978,0.1975,0,0.1284,0.1314,0.1341,0.1351,0.1371,0.1382,0.139,0.1459,0.1513,0.1652,0.174,0.1853,0.1932,0.2045,0.2076,0.2044,0.2282,0.2251,0.2137,0.2123,0.2018,0.1983,0.2426,0.2425,0.2425,0.2424,0.2424,0,0.1324,0.135,0.135,0.1373,0.1398,0.1404,0.1474,0.151,0.1625,0.1733,0.181,0.1927,0.2029,0.2134,0.2172,0.2215,0.236,0.2187,0.2182,0.2015,0.198,0.2234,0.221,0.2431,0.243,0.2429,0.2427,0,0.136,0.1374,0.1391,0.1405,0.1412,0.1427,0.1492,0.1568,0.167,0.1826,0.1883,0.2034,0.2164,0.2211,0.2386,0.2316,0.2392,0.2367,0.2118,0.2078,0.2139,0.2114,0.2319,0.2315,0.2311,0.2308,0.2305,0,0.1388,0.1405,0.1407,0.1429,0.1437,0.147,0.1519,0.1586,0.1675,0.1884,0.197,0.2125,0.2203,0.2322,0.2257,0.2275,0.2351,0.2094,0.1986,0.2165,0.2141,0.2122,0.2102,0.1874,0.1868,0.1863,0.1859,0,0.1438,0.1433,0.1453,0.1485,0.1516,0.1545,0.1607,0.1659,0.1778,0.1883,0.2019,0.2094,0.2166,0.2081,0.2043,0.2022,0.2065,0.1988,0.2337,0.1873,0.1745,0.1719,0.1717,0.1815,0.1819,0.1823,0.1825,0.1827,0.1481,0.1487,0.1519,0.1541,0.1584,0.1609,0.1595,0.1676,0.175,0.1803,0.1899,0.1914,0.1921,0.1761,0.1721,0.1668,0.1792,0.1716,0.1733,0.1756,0.1615,0.1481,0.1475,0.1478,0.148,0.1482,0.1483,0,0.1515,0.1544,0.1582,0.1586,0.1602,0.1631,0.1659,0.1595,0.161,0.1663,0.1637,0.1454,0.1412,0.1485,0.1335,0.128,0.1293,0.124,0.1278,0.1319,0.1357,0.1198,0.0949,0.0947,0.0946,0.0945,0,0,0.1546,0.158,0.1578,0.1597,0.1608,0.1565,0.1541,0.1449,0.1423,0.1304,0.1274,0.1232,0.1401,0.1143,0.1089,0.1034,0.1173,0.0977,0.1397,0.1482,0.1519,0.1609,0.1406,0,0,0,0,0]},{"header":{"parameterUnit":"m.s-1","parameterCategory":2,"la1":30.2991,"la2":30.254,"lo1":-89.0895,"lo2":-89.0444,"dy":0.0017,"dx":0.0017,"nx":28,"ny":28,"refTime":"2025-03-22T03:00:00:Z","depth":"2","parameterNumber":3,"parameterNumberName":"V-component_of_CURRENTS"},"data":[0,0,0,0,0,0,0,0,0,0,0,0,0,0,0,0,0,0,0,0,0,0,0,0,0,0,0,0,0,0,0,0,0,0,0,0,0,0,0,0,0,0,0,0,0,0,0,0,0,0,0,0,0,0,0,0,0,0,-0.017,-0.0171,0,-0.0197,-0.0197,-0.0197,-0.0208,-0.0208,-0.0208,-0.0207,-0.0247,-0.0248,-0.0249,0,0,0,0,0,0,0,0,0,0,0,0,0,-0.0124,-0.0124,-0.017,-0.0171,-0.0171,-0.0196,-0.0197,-0.0197,-0.0208,-0.0208,-0.0207,-0.0207,-0.0246,-0.0248,-0.0249,0,0,0,0,0,0,0,0,0,0,0,0,0,-0.0146,-0.0125,-0.017,-0.0179,-0.018,-0.0196,-0.0197,-0.0197,-0.0208,-0.0208,-0.0207,-0.0207,-0.0246,-0.0247,-0.0249,-0.0261,0,0,-0.0254,-0.0255,0,0,0,0,0,0,0,0,-0.0145,-0.0148,-0.0178,-0.0179,-0.018,-0.0199,-0.0195,-0.0219,-0.0208,-0.0197,-0.0207,-0.0207,-0.0232,-0.0235,-0.024,-0.0263,-0.0264,-0.0254,-0.0255,-0.0256,-0.0256,0,0,0,0,0,0,0,-0.0143,-0.0147,-0.0181,-0.0178,-0.0179,-0.018,-0.0183,-0.0199,-0.0215,-0.0198,-0.0199,-0.0202,-0.0233,-0.0238,-0.0241,-0.0265,-0.0254,-0.0256,-0.0257,-0.0257,-0.0296,-0.0296,0,0,0,0,0,0,-0.0141,-0.0145,-0.018,-0.0181,-0.0162,-0.0181,-0.0185,-0.0193,-0.0215,-0.0218,-0.0202,-0.0202,-0.0235,-0.0239,-0.0242,-0.0251,-0.0256,-0.0257,-0.0258,-0.0296,-0.0296,-0.0296,0,0,0,0,0,0,-0.014,-0.0144,-0.0179,-0.0164,-0.0168,-0.0182,-0.0191,-0.0193,-0.0197,-0.0217,-0.0221,-0.0203,-0.0235,-0.024,-0.0256,-0.0253,-0.0258,-0.026,-0.0296,-0.0296,-0.0296,-0.0272,0,0,0,0,0,0,-0.0138,-0.0143,-0.0146,-0.0164,-0.0169,-0.0195,-0.0191,-0.0194,-0.0199,-0.0199,-0.0219,-0.0223,-0.0236,-0.0253,-0.0257,-0.0255,-0.0261,-0.0296,-0.0296,-0.0296,-0.0273,-0.0272,-0.027,0,0,0,0,0,-0.0137,-0.015,-0.0146,-0.015,-0.0173,-0.0195,-0.0198,-0.0207,-0.0199,-0.0208,-0.0214,-0.0222,-0.0256,-0.0254,-0.0259,-0.0257,-0.0296,-0.0296,-0.0296,-0.0274,-0.0272,-0.027,0,0,0,0,0,0,-0.0132,-0.0153,-0.0149,-0.0167,-0.018,-0.0197,-0.0208,-0.0205,-0.0216,-0.0215,-0.0225,-0.023,-0.0245,-0.0255,-0.0252,-0.0269,-0.0276,-0.0277,-0.0258,-0.0256,-0.0255,-0.0199,-0.0262,0,0,0,0,0,-0.0131,-0.0147,-0.0161,-0.0175,-0.0182,-0.019,-0.0197,-0.0202,-0.0214,-0.0219,-0.0228,-0.0238,-0.025,-0.0255,-0.0273,-0.0281,-0.0271,-0.0282,-0.0281,-0.028,-0.0238,-0.0214,-0.0206,-0.0296,-0.0296,-0.0296,0,0,-0.0134,-0.0146,-0.0155,-0.0175,-0.0185,-0.0193,-0.0195,-0.0211,-0.0205,-0.0222,-0.0221,-0.0239,-0.0253,-0.0264,-0.027,-0.027,-0.0261,-0.028,-0.0278,-0.0236,-0.0213,-0.0204,-0.0196,-0.0296,-0.0296,-0.0296,0,0,-0.0158,-0.0158,-0.0183,-0.0185,-0.02,-0.0201,-0.0203,-0.0217,-0.0211,-0.0223,-0.0224,-0.0223,-0.0261,-0.0247,-0.025,-0.0247,-0.0259,-0.0272,-0.0213,-0.0193,-0.0184,-0.0176,-0.0199,-0.0193,-0.0266,-0.0265,-0.0265,0,-0.016,-0.0173,-0.0192,-0.0206,-0.019,-0.0201,-0.0198,-0.0203,-0.0216,-0.018,-0.0225,-0.0211,-0.0241,-0.0198,-0.0209,-0.0239,-0.0246,-0.022,-0.0188,-0.018,-0.0172,-0.0196,-0.019,-0.0264,-0.0264,-0.0265,-0.0265,0,-0.0202,-0.0192,-0.0204,-0.0213,-0.021,-0.0206,-0.0204,-0.0191,-0.0187,-0.0169,-0.0138,-0.0174,-0.0145,-0.0177,-0.0201,-0.0151,-0.0183,-0.0194,-0.0186,-0.0161,-0.019,-0.0184,-0.0263,-0.0263,-0.0263,-0.0264,0,0,-0.0243,-0.0231,-0.0229,-0.019,-0.0193,-0.0181,-0.0166,-0.0118,-0.0053,-0.009,-0.0009,-0.0052,-0.0039,-0.0039,-0.0063,-0.0057,-0.0051,-0.0103,-0.0103,-0.0114,-0.0036,-0.0154,-0.0159,-0.006,-0.0058,-0.0056,-0.0095,0,-0.0253,-0.0237,-0.024,-0.0192,-0.0162,-0.0135,-0.01,-0.0057,-0.0025,0.0042,0.0038,0.0083,0.0003,0.0025,0.0017,-0.0019,-0.0026,-0.0041,-0.0066,-0.0066,-0.0163,-0.0151,-0.0119,-0.0158,-0.0089,-0.0088,-0.0087,0,-0.0281,-0.0248,-0.0201,-0.0102,-0.0089,-0.0067,0.0055,0.0084,0.0169,0.0202,0.0249,0.0244,0.0264,0.0182,0.0145,0.0135,0.0062,0.0013,0.001,-0.0086,-0.017,-0.0163,-0.0149,-0.0077,-0.0077,-0.0078,-0.0079,0,-0.0239,-0.0204,-0.0137,-0.0113,-0.0036,0.0013,0.0058,0.0147,0.023,0.0326,0.04,0.0403,0.0419,0.0347,0.0203,0.0192,0.0134,0.0111,-0.0061,-0.0073,-0.0038,-0.0051,0.01,0.01,0.0101,0.0101,0.0101,0,-0.0204,-0.014,-0.0106,-0.0051,0.0046,0.0073,0.0205,0.0261,0.0373,0.0494,0.0497,0.057,0.0463,0.04,0.0263,0.0098,0.0177,-0.0034,-0.0075,-0.0041,-0.0052,0.0037,0.003,0.0099,0.0099,0.01,0.01,0,-0.0133,-0.0115,-0.0027,0.005,0.0079,0.0153,0.0288,0.0395,0.0488,0.0643,0.0683,0.071,0.0632,0.0479,0.0343,0.0177,0.0033,-0.0049,-0.0038,-0.0077,-0.0199,-0.0204,-0.0201,-0.0205,-0.0209,-0.0212,-0.0214,0,-0.0074,-0.0031,0.0047,0.0105,0.0148,0.0256,0.0348,0.0448,0.0557,0.072,0.0793,0.0779,0.0737,0.0469,0.0225,-0.0028,-0.0033,-0.0192,-0.0199,-0.0182,-0.0221,-0.0221,-0.0222,-0.0158,-0.016,-0.0161,-0.0162,0,0.0047,0.0053,0.0121,0.0211,0.0299,0.0399,0.0518,0.0609,0.0737,0.0814,0.0856,0.0828,0.0651,0.0393,0.0075,-0.0081,-0.0151,-0.0235,-0.0167,-0.0113,-0.0151,-0.0188,-0.0187,-0.0175,-0.0174,-0.0173,-0.0172,-0.0172,0.0135,0.0175,0.0234,0.0301,0.0418,0.0506,0.0549,0.0693,0.0784,0.0876,0.08,0.0752,0.0571,0.0154,-0.007,-0.0261,-0.0259,-0.0353,-0.0343,-0.0332,-0.0346,-0.0391,-0.0464,-0.0465,-0.0465,-0.0465,-0.0466,0,0.0197,0.0232,0.0324,0.0369,0.0446,0.0516,0.064,0.0661,0.0722,0.0842,0.0763,0.0502,0.0278,0.0149,-0.0152,-0.0396,-0.0341,-0.0447,-0.0317,-0.0305,-0.0295,-0.0301,-0.041,-0.041,-0.041,-0.041,0,0,0.0238,0.0288,0.0282,0.035,0.0406,0.0483,0.0524,0.061,0.0698,0.0711,0.0709,0.0543,0.0381,0.0139,-0.0118,-0.0239,-0.0214,-0.0262,-0.0292,-0.0097,-0.0083,-0.0237,-0.0236,0,0,0,0,0]}],[{"header":{"parameterUnit":"m.s-1","parameterCategory":2,"la1":30.2991,"la2":30.254,"lo1":-89.0895,"lo2":-89.0444,"dy":0.0017,"dx":0.0017,"nx":28,"ny":28,"refTime":"2025-03-22T03:00:00:Z","depth":"4","parameterNumber":2,"parameterNumberName":"U-component_of_CURRENTS"},"data":[0,0,0,0,0,0,0,0,0,0,0,0,0,0,0,0,0,0,0,0,0,0,0,0,0,0,0,0,0,0,0,0,0,0,0,0,0,0,0,0,0,0,0,0,0,0,0,0,0,0,0,0,0,0,0,0,0,0,0.0035,0.0036,0,0.0065,0.0066,0.0066,0.0114,0.0115,0.0116,0.0117,0.0216,0.0218,0.022,0,0,0,0,0,0,0,0,0,0,0,0,0,0.0029,0.0029,0.0035,0.0036,0.0036,0.0065,0.0066,0.0066,0.0114,0.0115,0.0116,0.0117,0.0216,0.0218,0.022,0,0,0,0,0,0,0,0,0,0,0,0,0,0.0042,0.0028,0.0035,0.0064,0.0067,0.0065,0.0066,0.0066,0.0114,0.0115,0.0117,0.0118,0.0215,0.0218,0.022,0.0211,0,0,0.0229,0.023,0,0,0,0,0,0,0,0,0.0042,0.0043,0.0059,0.0062,0.0065,0.0087,0.01,0.0118,0.0114,0.0096,0.0117,0.0119,0.0179,0.0184,0.0186,0.0215,0.022,0.0229,0.0231,0.0232,0.0233,0,0,0,0,0,0,0,0.0041,0.0042,0.0047,0.0059,0.0063,0.0078,0.0081,0.0103,0.0131,0.0098,0.0101,0.0104,0.0181,0.0183,0.0189,0.0221,0.0229,0.0231,0.0233,0.0234,0.0326,0.0327,0,0,0,0,0,0,0.0035,0.004,0.0046,0.0048,0.0056,0.0077,0.0081,0.0079,0.0129,0.0138,0.0103,0.0106,0.0178,0.0186,0.0193,0.0263,0.0232,0.0234,0.0236,0.0325,0.0326,0.0327,0,0,0,0,0,0,0.0034,0.0035,0.0045,0.0045,0.0048,0.0075,0.0073,0.0079,0.0096,0.0132,0.0143,0.0116,0.0179,0.0189,0.022,0.0265,0.0236,0.0238,0.0324,0.0325,0.0327,0.0354,0,0,0,0,0,0,0.0034,0.0034,0.0029,0.0045,0.0048,0.0055,0.0072,0.0078,0.0095,0.01,0.0147,0.0157,0.0181,0.0215,0.0222,0.0268,0.024,0.0323,0.0325,0.0326,0.0352,0.0356,0.0359,0,0,0,0,0,0.0033,0.0026,0.0028,0.0029,0.004,0.0055,0.0058,0.0082,0.0094,0.0103,0.013,0.0156,0.0231,0.0217,0.0226,0.0273,0.0322,0.0324,0.0326,0.035,0.0355,0.0359,0,0,0,0,0,0,0.0022,0.0031,0.0034,0.0029,0.0044,0.0064,0.0068,0.0084,0.0109,0.0118,0.0153,0.0164,0.0209,0.0227,0.0211,0.0303,0.0287,0.029,0.0302,0.0307,0.0311,0.0333,0.0242,0,0,0,0,0,0.0013,0.0008,0.0025,0.0019,0.0027,0.0047,0.0055,0.0073,0.0096,0.0109,0.0144,0.0182,0.0219,0.025,0.0275,0.0319,0.0331,0.0358,0.0362,0.0365,0.0388,0.0452,0.0465,0.0333,0.0333,0.0333,0,0,0.0002,0.0009,0.0004,0.0016,0.0027,0.0048,0.0056,0.0072,0.0106,0.0116,0.0169,0.0187,0.0227,0.0278,0.0303,0.0305,0.0395,0.0367,0.037,0.0391,0.0456,0.0469,0.048,0.0334,0.0334,0.0334,0,0,-0.0008,-0.0011,-0.001,0.0006,0.0027,0.0044,0.0052,0.0081,0.0113,0.0151,0.0174,0.0214,0.0268,0.0313,0.0341,0.0378,0.04,0.0394,0.045,0.0512,0.0524,0.0535,0.0509,0.0517,0.0411,0.0412,0.0412,0,-0.0018,-0.0011,-0.0007,0.0011,0.0031,0.0047,0.0072,0.0102,0.0142,0.0179,0.0176,0.0274,0.0292,0.0382,0.0395,0.0391,0.0403,0.043,0.0519,0.053,0.0541,0.0512,0.0521,0.0413,0.0413,0.0413,0.0413,0,-0.0016,-0.0005,-0.0001,0.0029,0.0051,0.007,0.0115,0.0152,0.0186,0.0222,0.0307,0.0335,0.0421,0.0417,0.0419,0.0516,0.0486,0.0502,0.051,0.0556,0.0521,0.053,0.0415,0.0415,0.0414,0.0414,0,0,-0.0047,-0.0006,-0.0004,0.0024,0.0067,0.0089,0.0151,0.0217,0.0273,0.0324,0.0416,0.0467,0.0511,0.0546,0.0568,0.0601,0.0648,0.0593,0.0595,0.0569,0.0735,0.0668,0.0671,0.0696,0.0699,0.0701,0.0658,0,-0.0041,-0.0008,0.0019,0.0068,0.0093,0.0144,0.0206,0.027,0.0324,0.0412,0.0479,0.0564,0.056,0.0615,0.0662,0.0666,0.0684,0.0655,0.0693,0.0692,0.0633,0.0685,0.0711,0.0665,0.0667,0.0669,0.067,0,-0.0039,-0.0015,0.0028,0.0108,0.0128,0.0175,0.0281,0.0338,0.0454,0.0503,0.0616,0.0677,0.0783,0.0754,0.0829,0.082,0.0793,0.0759,0.0758,0.0706,0.0647,0.0624,0.0686,0.0685,0.0684,0.0682,0.0681,0,-0.0057,0.0001,0.0039,0.0061,0.0146,0.0208,0.0273,0.0374,0.0442,0.0586,0.064,0.0788,0.0854,0.0906,0.0874,0.0884,0.0882,0.0897,0.0791,0.0781,0.0839,0.0829,0.093,0.093,0.093,0.093,0.093,0,-0.0052,-0.0022,0.0043,0.0065,0.0149,0.0215,0.0326,0.0398,0.0521,0.0604,0.0714,0.0786,0.0898,0.092,0.0908,0.0872,0.0936,0.0812,0.0795,0.0839,0.083,0.0841,0.0831,0.0928,0.0928,0.0929,0.0929,0,-0.0075,-0.0039,0.0005,0.0096,0.0143,0.0205,0.0361,0.0425,0.0531,0.0646,0.0709,0.0808,0.0848,0.0872,0.0893,0.0882,0.0861,0.0805,0.0787,0.0766,0.0705,0.0697,0.0755,0.0753,0.0751,0.0749,0.0748,0,-0.0083,-0.0067,0.0012,0.006,0.0115,0.0227,0.0303,0.0431,0.0497,0.064,0.0681,0.0754,0.0815,0.0766,0.0803,0.0785,0.0756,0.074,0.08,0.0723,0.0701,0.0696,0.069,0.0745,0.0745,0.0745,0.0744,0,-0.0105,-0.0086,-0.0056,0.0033,0.0117,0.0206,0.0328,0.0378,0.0516,0.061,0.0672,0.072,0.0715,0.074,0.0692,0.0682,0.0787,0.0722,0.0727,0.0784,0.0713,0.0691,0.0688,0.0738,0.0739,0.074,0.074,0,-0.0131,-0.0123,-0.0082,0.0,0.009,0.0164,0.0242,0.0338,0.042,0.0586,0.0594,0.0643,0.0706,0.0678,0.065,0.0637,0.0659,0.0668,0.0676,0.0683,0.0685,0.0586,0.0576,0,0,0,0,0,-0.0145,-0.0143,-0.0097,-0.002,0.0061,0.0122,0.0242,0.0313,0.0447,0.0478,0.0553,0.0564,0.0584,0.0587,0.0561,0.0607,0.0636,0.0577,0.0644,0.0705,0.0712,0.0723,0,0,0,0,0,0,-0.0154,-0.0134,-0.0132,-0.0063,-0.0004,0.0081,0.015,0.0241,0.0277,0.0413,0.0402,0.053,0.0514,0.0573,0.0542,0.055,0.0586,0.0618,0.0618,0.0701,0.0707,0.0713,0.0727,0,0,0,0,0]},{"header":{"parameterUnit":"m.s-1","parameterCategory":2,"la1":30.2991,"la2":30.254,"lo1":-89.0895,"lo2":-89.0444,"dy":0.0017,"dx":0.0017,"nx":28,"ny":28,"refTime":"2025-03-22T03:00:00:Z","depth":"4","parameterNumber":3,"parameterNumberName":"V-component_of_CURRENTS"},"data":[0,0,0,0,0,0,0,0,0,0,0,0,0,0,0,0,0,0,0,0,0,0,0,0,0,0,0,0,0,0,0,0,0,0,0,0,0,0,0,0,0,0,0,0,0,0,0,0,0,0,0,0,0,0,0,0,0,0,0.0097,0.0097,0,0.0102,0.0102,0.0102,0.0053,0.0051,0.005,0.0049,-0.0064,-0.0066,-0.0068,0,0,0,0,0,0,0,0,0,0,0,0,0,0.0038,0.0039,0.0097,0.0097,0.0097,0.0102,0.0102,0.0102,0.0053,0.0051,0.005,0.0048,-0.0064,-0.0066,-0.0068,0,0,0,0,0,0,0,0,0,0,0,0,0,0.0054,0.0039,0.0096,0.0074,0.0072,0.0102,0.0102,0.0102,0.0053,0.0051,0.0049,0.0048,-0.0063,-0.0066,-0.0068,-0.0049,0,0,-0.0077,-0.0078,0,0,0,0,0,0,0,0,0.0053,0.0056,0.0077,0.0076,0.0074,0.0076,0.004,0.0046,0.0054,0.0059,0.0049,0.0047,-0.0026,-0.0032,-0.0027,-0.0054,-0.0059,-0.0077,-0.0079,-0.008,-0.0081,0,0,0,0,0,0,0,0.0052,0.0055,0.0097,0.0078,0.0076,0.0062,0.0062,0.0041,0.0023,0.0058,0.0055,0.0059,-0.0028,-0.0024,-0.0031,-0.0061,-0.0077,-0.0079,-0.0081,-0.0082,-0.0175,-0.0175,0,0,0,0,0,0,0.0057,0.0055,0.0097,0.0097,0.006,0.0064,0.0065,0.0076,0.0026,0.0018,0.006,0.0056,-0.0019,-0.0027,-0.0035,-0.0073,-0.008,-0.0083,-0.0084,-0.0174,-0.0175,-0.0176,0,0,0,0,0,0,0.0056,0.0061,0.0097,0.0076,0.008,0.0068,0.0081,0.0077,0.0065,0.0029,0.0018,0.005,-0.002,-0.0031,-0.0065,-0.0076,-0.0084,-0.0086,-0.0173,-0.0174,-0.0175,-0.0112,0,0,0,0,0,0,0.0054,0.0061,0.0068,0.0077,0.0082,0.0116,0.0082,0.0078,0.0071,0.0066,0.0017,0.0006,-0.0023,-0.0061,-0.0068,-0.008,-0.0089,-0.0172,-0.0173,-0.0175,-0.0113,-0.0111,-0.0109,0,0,0,0,0,0.0052,0.008,0.0069,0.0073,0.0093,0.0117,0.0118,0.0101,0.0073,0.008,0.0036,0.0006,-0.0077,-0.0063,-0.0071,-0.0084,-0.0171,-0.0173,-0.0175,-0.0114,-0.0112,-0.0109,0,0,0,0,0,0,0.0054,0.0078,0.0066,0.0096,0.0103,0.0109,0.0121,0.01,0.0075,0.0062,0.0011,-0.0001,-0.004,-0.0071,-0.0055,-0.0119,-0.0135,-0.0138,-0.0086,-0.0084,-0.0082,-0.0119,-0.0091,0,0,0,0,0,0.006,0.0089,0.0097,0.0121,0.0128,0.0119,0.0123,0.0113,0.0096,0.0083,0.0052,0.0001,-0.0048,-0.0073,-0.0107,-0.013,-0.018,-0.0151,-0.0149,-0.0147,-0.0186,-0.0251,-0.0258,-0.0181,-0.0181,-0.0181,0,0,0.0068,0.0084,0.01,0.0123,0.0128,0.0151,0.0117,0.0133,0.0134,0.0075,0.0065,0.0015,-0.0053,-0.0083,-0.0105,-0.0113,-0.019,-0.0149,-0.0146,-0.0188,-0.0254,-0.0261,-0.0268,-0.0182,-0.0182,-0.0182,0,0,0.0112,0.0114,0.0153,0.0162,0.0177,0.0175,0.0176,0.0181,0.0162,0.0155,0.0092,0.0025,-0.0006,-0.0078,-0.0118,-0.013,-0.0174,-0.0133,-0.0153,-0.0213,-0.022,-0.0227,-0.027,-0.0281,-0.0133,-0.0133,-0.0133,0,0.0116,0.0155,0.0166,0.02,0.0198,0.0185,0.0204,0.0203,0.0191,0.0139,0.0158,0.002,-0.0016,-0.0127,-0.0127,-0.0128,-0.016,-0.0147,-0.0209,-0.0218,-0.0226,-0.0269,-0.0282,-0.013,-0.013,-0.0131,-0.0131,0,0.019,0.0205,0.0229,0.0261,0.0267,0.0283,0.0277,0.026,0.0234,0.0197,0.0098,0.0047,-0.0062,-0.0067,-0.0095,-0.0191,-0.0192,-0.0192,-0.021,-0.023,-0.0273,-0.0288,-0.0126,-0.0127,-0.0128,-0.0129,0,0,0.0225,0.0268,0.0271,0.0265,0.0286,0.0291,0.0285,0.0235,0.0169,0.0158,0.006,-0.0015,-0.0083,-0.0138,-0.0189,-0.0236,-0.029,-0.0232,-0.0236,-0.0266,-0.0411,-0.0294,-0.03,-0.0287,-0.029,-0.0293,-0.0406,0,0.0262,0.031,0.0326,0.0341,0.0347,0.0313,0.0291,0.0238,0.0182,0.0098,0.0001,-0.0089,-0.0095,-0.0156,-0.0208,-0.0279,-0.0333,-0.026,-0.04,-0.0405,-0.029,-0.0315,-0.0302,-0.0417,-0.0421,-0.0424,-0.0425,0,0.0315,0.0329,0.0351,0.0316,0.0313,0.0316,0.0211,0.0188,0.0062,0.0006,-0.0111,-0.0168,-0.028,-0.0253,-0.0398,-0.0344,-0.039,-0.0424,-0.0429,-0.0366,-0.0317,-0.0406,-0.0453,-0.0451,-0.0449,-0.0447,-0.0446,0,0.0296,0.033,0.033,0.0331,0.0312,0.0274,0.0239,0.013,0.0069,-0.007,-0.0129,-0.0264,-0.0329,-0.0407,-0.044,-0.0436,-0.056,-0.0566,-0.0518,-0.0509,-0.0608,-0.06,-0.0685,-0.0685,-0.0685,-0.0684,-0.0684,0,0.0297,0.0293,0.0315,0.0305,0.0258,0.0247,0.0153,0.0084,-0.0022,-0.0097,-0.019,-0.0242,-0.0365,-0.0423,-0.0469,-0.0513,-0.0586,-0.0546,-0.054,-0.0574,-0.0561,-0.0617,-0.0608,-0.0689,-0.0688,-0.0687,-0.0686,0,0.0254,0.0282,0.0275,0.026,0.0246,0.02,0.0127,0.0051,-0.0038,-0.0129,-0.0162,-0.0257,-0.0317,-0.0403,-0.052,-0.0537,-0.0595,-0.0593,-0.0605,-0.0595,-0.0512,-0.0498,-0.0605,-0.0602,-0.06,-0.0597,-0.0596,0,0.0225,0.0224,0.0233,0.0213,0.02,0.0143,0.009,0.0026,-0.0021,-0.0103,-0.0129,-0.0208,-0.0259,-0.034,-0.0425,-0.0528,-0.0526,-0.0575,-0.0581,-0.0525,-0.051,-0.05,-0.049,-0.0592,-0.0591,-0.059,-0.059,0,0.0149,0.0169,0.0161,0.0145,0.0114,0.0097,0.005,0.0034,-0.0016,-0.0094,-0.0091,-0.0137,-0.0203,-0.028,-0.0347,-0.0413,-0.0556,-0.055,-0.0558,-0.0564,-0.051,-0.0495,-0.0488,-0.0581,-0.0582,-0.0583,-0.0584,0,0.0079,0.007,0.0083,0.0082,0.0054,0.0088,0.0063,0.0059,0.0032,-0.0022,-0.0,-0.0076,-0.0144,-0.0217,-0.0261,-0.0323,-0.0366,-0.0402,-0.0418,-0.0429,-0.0321,-0.0223,-0.0221,0,0,0,0,0,0.0014,0.0031,0.0014,0.0054,0.0045,0.0062,0.0054,0.0047,0.0035,0.0047,0.0028,-0.0007,-0.0083,-0.0121,-0.0167,-0.0236,-0.0386,-0.0291,-0.0438,-0.0532,-0.0543,-0.0431,0,0,0,0,0,0,-0.0037,-0.0045,0.0014,0.0062,0.0083,0.0102,0.0117,0.0114,0.0134,0.0099,0.0064,-0.0001,-0.0078,-0.005,-0.016,-0.0184,-0.0278,-0.0351,-0.0351,-0.0527,-0.0536,-0.0544,-0.0433,0,0,0,0,0]}]]